Starlink 11541

operational
NORAD ID: 63015 Int'l Des: 2025-032 Owner: SPXS Country: US Constellation: starlink
LEOCIRCULAR

About Starlink 11541

Description loading...

Live Position

Loading 3D Globe...

Upcoming Passes

Altitude History

Altitude vs Time

uPlot chart will show altitude changes over time

Two-Line Element Set

1 63015U 25032L 25260.14983901 .00189517 00000-0 14466-2 0 9991
2 63015 43.0016 161.0975 0002071 265.0393 95.0238 15.70847109 34936
Epoch: Sep 17, 2025 • Age: 9 hours

Current Status

Altitude 356.3 km
Velocity 7.70 km/s
Sub-Earth Point -3.71°S, 32.79°W
Launch Date Feb 15, 2025
Age 0.5 years
Type internet

Technical Details

Classification Payload
Mass 960.00 kg
Dry Mass 910.00 kg
Total Mass 960.00 kg
Length 0.30 m
Diameter 4.10 m
Span 29.00 m
Shape Box + pan
Manufacturer SPXS
Bus Type Starlink V2MD
Phase Status In Orbit
Owner/State SPXS/US

Large Constellations

Loading constellations...